TimeCDT,TemperatureF,Dew PointF,Humidity,Sea Level PressureIn,VisibilityMPH,Wind Direction,Wind SpeedMPH,Gust SpeedMPH,PrecipitationIn,Events,Conditions,WindDirDegrees,DateUTC
12:14 AM,30.2,21.2,69,30.25,10.0,NW,8.1,-,N/A,,Mostly Cloudy,310,2012-10-06 05:14:00
12:33 AM,30.2,21.2,69,30.24,10.0,WNW,6.9,-,N/A,,Overcast,290,2012-10-06 05:33:00
12:53 AM,30.2,21.2,69,30.24,10.0,WNW,5.8,-,N/A,,Mostly Cloudy,290,2012-10-06 05:53:00
1:13 AM,30.2,23.0,75,30.24,10.0,WNW,5.8,-,N/A,,Mostly Cloudy,300,2012-10-06 06:13:00
1:33 AM,33.8,23.0,65,30.24,10.0,NW,8.1,-,N/A,,Overcast,310,2012-10-06 06:33:00
1:53 AM,33.8,23.0,65,30.24,10.0,NW,9.2,-,N/A,,Overcast,320,2012-10-06 06:53:00
2:13 AM,33.8,24.8,70,30.24,10.0,NNW,10.4,-,N/A,,Overcast,340,2012-10-06 07:13:00
2:33 AM,35.6,23.0,60,30.24,10.0,North,9.2,-,N/A,,Mostly Cloudy,350,2012-10-06 07:33:00
2:53 AM,35.6,24.8,65,30.24,10.0,North,9.2,18.4,N/A,,Mostly Cloudy,350,2012-10-06 07:53:00
3:13 AM,33.8,24.8,70,30.24,10.0,North,10.4,-,N/A,,Mostly Cloudy,350,2012-10-06 08:13:00
3:33 AM,32.0,24.8,75,30.24,10.0,North,8.1,-,N/A,,Mostly Cloudy,360,2012-10-06 08:33:00
3:53 AM,33.8,24.8,70,30.24,10.0,North,8.1,16.1,N/A,,Overcast,350,2012-10-06 08:53:00
4:13 AM,33.8,24.8,70,30.24,10.0,NNW,10.4,-,N/A,,Overcast,340,2012-10-06 09:13:00
4:33 AM,33.8,24.8,70,30.24,10.0,NNW,9.2,-,N/A,,Overcast,340,2012-10-06 09:33:00
4:53 AM,33.8,26.6,75,30.24,10.0,NW,10.4,-,N/A,,Overcast,320,2012-10-06 09:53:00
5:13 AM,33.8,26.6,75,30.25,10.0,NNW,8.1,-,N/A,,Overcast,330,2012-10-06 10:13:00
5:33 AM,33.8,26.6,75,30.25,10.0,NNW,11.5,17.3,N/A,,Overcast,340,2012-10-06 10:33:00
5:53 AM,33.8,24.8,70,30.25,10.0,NNW,15.0,19.6,N/A,,Overcast,340,2012-10-06 10:53:00
6:14 AM,33.8,24.8,70,30.26,10.0,NNW,12.7,18.4,N/A,,Overcast,340,2012-10-06 11:14:00
6:33 AM,33.8,24.8,70,30.27,10.0,North,11.5,23.0,N/A,,Overcast,350,2012-10-06 11:33:00
6:53 AM,33.8,26.6,75,30.28,10.0,North,11.5,16.1,N/A,,Overcast,350,2012-10-06 11:53:00
7:13 AM,33.8,24.8,70,30.28,10.0,NNW,13.8,23.0,N/A,,Overcast,340,2012-10-06 12:13:00
7:33 AM,33.8,24.8,70,30.29,10.0,North,10.4,16.1,N/A,,Overcast,10,2012-10-06 12:33:00
7:54 AM,33.8,26.6,75,30.29,10.0,North,11.5,17.3,N/A,,Overcast,350,2012-10-06 12:54:00
8:34 AM,33.8,24.8,70,30.30,10.0,North,12.7,19.6,N/A,,Overcast,360,2012-10-06 13:34:00
9:13 AM,33.8,24.8,70,30.31,10.0,North,18.4,24.2,N/A,,Overcast,350,2012-10-06 14:13:00
9:33 AM,33.8,24.8,70,30.31,10.0,North,11.5,17.3,N/A,,Overcast,350,2012-10-06 14:33:00
9:54 AM,35.6,24.8,65,30.31,10.0,North,11.5,20.7,N/A,,Mostly Cloudy,360,2012-10-06 14:54:00
10:13 AM,35.6,24.8,65,30.31,10.0,North,11.5,16.1,N/A,,Scattered Clouds,10,2012-10-06 15:13:00
10:33 AM,37.4,24.8,60,30.31,10.0,North,11.5,18.4,N/A,,Scattered Clouds,360,2012-10-06 15:33:00
10:54 AM,37.4,24.8,60,30.31,10.0,North,10.4,21.9,N/A,,Scattered Clouds,10,2012-10-06 15:54:00
11:13 AM,37.4,24.8,60,30.31,10.0,NNE,10.4,20.7,N/A,,Mostly Cloudy,20,2012-10-06 16:13:00
11:33 AM,37.4,24.8,60,30.31,10.0,North,9.2,19.6,N/A,,Overcast,360,2012-10-06 16:33:00
11:53 AM,37.4,23.0,56,30.32,10.0,North,10.4,17.3,N/A,,Overcast,360,2012-10-06 16:53:00
12:13 PM,37.4,24.8,60,30.31,10.0,North,10.4,18.4,N/A,,Mostly Cloudy,10,2012-10-06 17:13:00
12:33 PM,37.4,23.0,56,30.31,10.0,NNE,9.2,-,N/A,,Mostly Cloudy,20,2012-10-06 17:33:00
12:53 PM,37.4,24.8,60,30.31,10.0,North,9.2,-,N/A,,Mostly Cloudy,10,2012-10-06 17:53:00
1:13 PM,39.2,23.0,52,30.31,10.0,NNE,9.2,16.1,N/A,,Mostly Cloudy,30,2012-10-06 18:13:00
1:33 PM,39.2,23.0,52,30.30,10.0,NNE,8.1,19.6,N/A,,Mostly Cloudy,20,2012-10-06 18:33:00
1:53 PM,39.2,21.2,49,30.29,10.0,North,11.5,19.6,N/A,,Mostly Cloudy,10,2012-10-06 18:53:00
2:14 PM,39.2,23.0,52,30.29,10.0,North,9.2,21.9,N/A,,Scattered Clouds,350,2012-10-06 19:14:00
2:33 PM,39.2,21.2,49,30.28,10.0,NNE,6.9,-,N/A,,Scattered Clouds,20,2012-10-06 19:33:00
2:53 PM,41.0,21.2,45,30.27,10.0,North,10.4,-,N/A,,Clear,350,2012-10-06 19:53:00
3:14 PM,41.0,21.2,45,30.27,10.0,NNE,11.5,18.4,N/A,,Scattered Clouds,30,2012-10-06 20:14:00
3:32 PM,41.0,21.2,45,30.27,10.0,NNW,12.7,16.1,N/A,,Scattered Clouds,340,2012-10-06 20:32:00
3:53 PM,41.0,21.2,45,30.27,10.0,North,8.1,17.3,N/A,,Mostly Cloudy,350,2012-10-06 20:53:00
4:13 PM,41.0,21.2,45,30.26,10.0,North,6.9,18.4,N/A,,Scattered Clouds,10,2012-10-06 21:13:00
4:33 PM,41.0,21.2,45,30.26,10.0,North,10.4,16.1,N/A,,Clear,10,2012-10-06 21:33:00
4:53 PM,39.2,21.2,49,30.26,10.0,North,6.9,12.7,N/A,,Scattered Clouds,360,2012-10-06 21:53:00
5:13 PM,41.0,21.2,45,30.26,10.0,North,8.1,-,N/A,,Scattered Clouds,360,2012-10-06 22:13:00
5:34 PM,41.0,19.4,42,30.26,10.0,North,6.9,-,N/A,,Clear,360,2012-10-06 22:34:00
5:53 PM,39.2,19.4,45,30.26,10.0,North,5.8,-,N/A,,Clear,360,2012-10-06 22:53:00
6:13 PM,39.2,21.2,49,30.26,10.0,North,5.8,-,N/A,,Clear,10,2012-10-06 23:13:00
6:34 PM,39.2,21.2,49,30.26,10.0,NNE,6.9,-,N/A,,Clear,30,2012-10-06 23:34:00
6:53 PM,37.4,21.2,52,30.26,10.0,NNE,5.8,-,N/A,,Clear,30,2012-10-06 23:53:00
7:13 PM,37.4,21.2,52,30.26,10.0,NE,3.5,-,N/A,,Clear,40,2012-10-07 00:13:00
7:33 PM,35.6,21.2,56,30.27,10.0,Calm,Calm,-,N/A,,Clear,0,2012-10-07 00:33:00
7:53 PM,35.6,21.2,56,30.27,10.0,Calm,Calm,-,N/A,,Clear,0,2012-10-07 00:53:00
8:13 PM,33.8,21.2,60,30.27,7.0,Calm,Calm,-,N/A,,Clear,0,2012-10-07 01:13:00
8:33 PM,33.8,21.2,60,30.27,10.0,Calm,Calm,-,N/A,,Clear,0,2012-10-07 01:33:00
8:53 PM,33.8,21.2,60,30.27,10.0,Calm,Calm,-,N/A,,Clear,0,2012-10-07 01:53:00
9:13 PM,30.2,21.2,69,30.27,7.0,Calm,Calm,-,N/A,,Clear,0,2012-10-07 02:13:00
9:33 PM,30.2,19.4,64,30.27,10.0,Calm,Calm,-,N/A,,Clear,0,2012-10-07 02:33:00
9:53 PM,30.2,19.4,64,30.27,10.0,Calm,Calm,-,N/A,,Clear,0,2012-10-07 02:53:00
10:13 PM,28.4,19.4,69,30.27,10.0,Calm,Calm,-,N/A,,Clear,0,2012-10-07 03:13:00
10:34 PM,28.4,21.2,74,30.27,10.0,Calm,Calm,-,N/A,,Clear,0,2012-10-07 03:34:00
10:53 PM,24.8,17.6,74,30.27,10.0,Calm,Calm,-,N/A,,Clear,0,2012-10-07 03:53:00
11:13 PM,24.8,19.4,80,30.27,10.0,Calm,Calm,-,N/A,,Clear,0,2012-10-07 04:13:00
11:34 PM,24.8,17.6,74,30.26,10.0,Calm,Calm,-,N/A,,Clear,0,2012-10-07 04:34:00
11:53 PM,21.2,15.8,80,30.25,10.0,Calm,Calm,-,N/A,,Clear,0,2012-10-07 04:53:00